FW5857 Weather Reports


time (UTC)temp
C
wind
direction
speed
KPH
gust
KPH
rain 1hr
cm
rain 24hr
cm
rain mn
cm
humidity
%
barometer
mb
20260906113515 18 92 1.6 6.4 0.00 0.00 0.00 99 1019.6
20260906113023 18 68 3.2 9.7 0.00 0.00 0.00 99 1019.7
20260906112523 18 46 3.2 9.7 0.00 0.00 0.00 99 1019.6
20260906112023 18 60 3.2 8.0 0.00 0.00 0.00 99 1019.5
20260906111523 18 80 3.2 11.3 0.00 0.00 0.00 99 1019.4
20260906111023 18 81 3.2 11.3 0.00 0.00 0.00 99 1019.5
20260906110523 18 60 4.8 12.9 0.00 0.00 0.00 99 1019.5
20260906110023 18 44 3.2 14.5 0.00 0.00 0.00 99 1019.5
20260906105523 18 69 6.4 12.9 0.00 0.00 0.00 99 1019.4
20260906105022 18 42 4.8 14.5 0.00 0.00 0.00 99 1019.5
20260906104522 18 71 4.8 14.5 0.00 0.00 0.00 99 1019.4
20260906104022 18 57 3.2 12.9 0.00 0.00 0.00 99 1019.4
20260906103522 18 61 3.2 12.9 0.00 0.00 0.00 99 1019.3
20260906103022 18 40 4.8 9.7 0.00 0.00 0.00 99 1019.4
20260906102542 18 38 3.2 12.9 0.00 0.00 0.00 99 1019.3
20260906102022 18 65 3.2 6.4 0.00 0.00 0.00 99 1019.1
20260906101522 18 67 3.2 9.7 0.00 0.00 0.00 99 1019.1
20260906101022 18 80 3.2 9.7 0.00 0.00 0.00 99 1019.1
20260906100522 18 60 3.2 9.7 0.00 0.00 0.00 99 1019.0
20260906100022 18 72 4.8 11.3 0.00 0.00 0.00 99 1019.0
20260906095542 18 45 4.8 11.3 0.00 0.00 0.00 99 1019.0
20260906095022 18 42 3.2 12.9 0.00 0.00 0.00 99 1019.1
20260906094522 18 45 4.8 14.5 0.00 0.00 0.00 99 1019.0
20260906094022 18 59 4.8 9.7 0.00 0.00 0.00 99 1019.0
20260906093522 18 50 4.8 11.3 0.00 0.00 0.00 99 1019.0
20260906093042 18 50 3.2 9.7 0.00 0.00 0.00 99 1018.9
20260906092541 18 28 4.8 11.3 0.00 0.00 0.00 99 1018.8
20260906092022 18 45 1.6 6.4 0.00 0.00 0.00 99 1018.8
20260906091521 18 42 3.2 6.4 0.00 0.00 0.00 99 1018.9
20260906091021 18 57 1.6 8.0 0.00 0.00 0.00 99 1018.8
20260906090521 18 44 1.6 6.4 0.00 0.00 0.00 99 1018.9
20260906090021 18 50 3.2 6.4 0.00 0.00 0.00 99 1018.9
20260906085541 18 17 3.2 6.4 0.00 0.00 0.00 99 1018.9
20260906085021 18 19 3.2 6.4 0.00 0.00 0.00 99 1018.8
20260906084521 18 43 1.6 6.4 0.00 0.00 0.00 99 1018.8
20260906084041 18 39 3.2 8.0 0.00 0.00 0.00 99 1018.7
20260906083521 18 44 1.6 9.7 0.00 0.00 0.00 99 1018.8
20260906083020 18 24 1.6 6.4 0.00 0.00 0.00 99 1018.8
20260906082520 18 38 3.2 9.7 0.00 0.00 0.00 99 1018.8
20260906082022 18 39 3.2 8.0 0.00 0.00 0.00 99 1018.8
20260906081520 18 32 1.6 6.4 0.00 0.00 0.00 99 1018.9
20260906081020 18 44 1.6 6.4 0.00 0.00 0.00 99 1018.8
20260906080539 18 27 3.2 9.7 0.00 0.00 0.00 99 1018.8
20260906080039 18 51 1.6 9.7 0.00 0.00 0.00 99 1018.7
20260906075519 18 37 3.2 6.4 0.00 0.00 0.00 99 1018.7
20260906075019 18 43 3.2 9.7 0.00 0.00 0.00 99 1018.8
20260906074519 18 35 3.2 6.4 0.00 0.00 0.00 99 1018.8
20260906074019 19 44 1.6 4.8 0.00 0.00 0.00 99 1019.0
20260906073519 19 40 1.6 6.4 0.00 0.00 0.00 99 1018.9
20260906073019 19 41 3.2 6.4 0.00 0.00 0.00 99 1018.9
20260906072518 19 73 1.6 4.8 0.00 0.00 0.00 99 1018.9
20260906072038 19 46 1.6 4.8 0.00 0.00 0.00 99 1018.7
20260906071518 19 58 1.6 4.8 0.00 0.00 0.00 99 1018.8
20260906071018 19 50 1.6 6.4 0.00 0.00 0.00 99 1018.8
20260906070538 19 39 3.2 6.4 0.00 0.00 0.00 99 1018.8
20260906070018 19 36 3.2 9.7 0.00 0.00 0.00 99 1018.8
20260906065518 19 56 1.6 8.0 0.00 0.00 0.00 98 1018.9
20260906065017 19 76 1.6 4.8 0.00 0.00 0.00 98 1018.9
20260906064517 19 45 3.2 8.0 0.00 0.00 0.00 98 1019.0
20260906064018 20 31 3.2 6.4 0.00 0.00 0.00 98 1019.1
20260906063517 20 12 1.6 4.8 0.00 0.00 0.00 98 1019.0
20260906063017 20 33 1.6 6.4 0.00 0.00 0.00 97 1019.0
20260906062517 20 37 3.2 8.0 0.00 0.00 0.00 97 1019.1
20260906062017 20 33 3.2 6.4 0.00 0.00 0.00 97 1019.1
20260906061536 20 31 3.2 6.4 0.00 0.00 0.00 97 1019.0
20260906061016 20 73 1.6 6.4 0.00 0.00 0.00 96 1019.0
20260906060516 20 61 3.2 8.0 0.00 0.00 0.00 96 1019.0
20260906060016 20 59 4.8 9.7 0.00 0.00 0.00 96 1019.0
20260906055516 20 55 4.8 8.0 0.00 0.00 0.00 95 1019.1
20260906055016 20 70 3.2 8.0 0.00 0.00 0.00 95 1019.1
20260906054516 20 43 4.8 16.1 0.00 0.00 0.00 96 1019.0
20260906054016 20 28 3.2 11.3 0.00 0.00 0.00 96 1019.1
20260906053516 20 40 4.8 14.5 0.00 0.00 0.00 96 1019.0
20260906053016 20 70 3.2 8.0 0.00 0.00 0.00 96 1018.9
20260906052516 20 66 3.2 8.0 0.00 0.00 0.00 96 1018.9
20260906052016 20 43 4.8 12.9 0.00 0.00 0.00 96 1018.9
20260906051516 20 45 4.8 11.3 0.00 0.00 0.00 96 1018.8
20260906051015 20 61 6.4 17.7 0.00 0.00 0.00 96 1018.9
20260906050523 20 43 6.4 16.1 0.00 0.00 0.00 96 1018.9
20260906050035 20 56 4.8 14.5 0.00 0.00 0.00 96 1018.7
20260906045523 20 41 4.8 11.3 0.00 0.00 0.00 96 1018.7
20260906045043 20 60 4.8 8.0 0.00 0.00 0.00 96 1018.7
20260906044523 20 45 4.8 14.5 0.00 0.00 0.00 96 1018.7
20260906044023 20 20 4.8 11.3 0.00 0.00 0.00 96 1018.6
20260906043523 20 42 3.2 9.7 0.00 0.00 0.00 96 1018.6
20260906043023 20 46 6.4 11.3 0.00 0.00 0.00 96 1018.5
20260906042643 20 21 4.8 12.9 0.00 0.00 0.00 96 1018.5
20260906042022 20 26 4.8 12.9 0.00 0.00 0.00 96 1018.4
20260906041523 20 59 4.8 14.5 0.00 0.00 0.00 96 1018.4
20260906041022 20 74 3.2 9.7 0.00 0.00 0.00 96 1018.3
20260906040522 20 89 4.8 11.3 0.00 0.00 0.00 96 1018.2
20260906040022 20 68 6.4 12.9 0.00 0.00 0.00 96 1018.2
20260906035522 20 73 4.8 9.7 0.00 0.00 0.00 96 1018.1
20260906035022 20 74 4.8 11.3 0.00 0.00 0.00 96 1018.1
20260906034522 20 58 6.4 14.5 0.00 0.00 0.00 96 1018.1
20260906034022 20 63 6.4 24.1 0.00 0.00 0.00 96 1017.9
20260906033522 20 68 4.8 14.5 0.00 0.00 0.00 96 1017.8
20260906033022 20 72 4.8 11.3 0.00 0.00 0.00 96 1017.8
20260906032521 20 52 4.8 11.3 0.00 0.00 0.00 96 1017.7
20260906032021 20 58 4.8 12.9 0.00 0.00 0.00 95 1017.7
20260906031521 20 53 6.4 12.9 0.00 0.00 0.00 95 1017.7
20260906031022 20 58 3.2 9.7 0.00 0.00 0.00 94 1017.7
20260906030521 20 76 3.2 9.7 0.00 0.00 0.00 94 1017.7
20260906030041 21 62 4.8 17.7 0.00 0.00 0.00 94 1017.7
20260906025541 21 54 6.4 17.7 0.00 0.00 0.00 94 1017.7
20260906025021 21 56 4.8 16.1 0.00 0.00 0.00 93 1017.7
20260906024521 21 64 4.8 17.7 0.00 0.00 0.00 93 1017.7
20260906024021 21 74 4.8 12.9 0.00 0.03 0.00 92 1017.7
20260906023521 21 52 6.4 17.7 0.00 0.03 0.00 92 1017.6
20260906023021 21 61 1.6 6.4 0.00 0.03 0.00 92 1017.5
20260906022521 21 60 4.8 11.3 0.00 0.46 0.00 91 1017.5
20260906022041 21 51 1.6 12.9 0.00 0.46 0.00 91 1017.5
20260906021541 21 31 3.2 9.7 0.00 0.46 0.00 92 1017.7
20260906021021 21 52 4.8 12.9 0.00 0.46 0.00 92 1017.6
20260906020521 21 76 6.4 14.5 0.00 0.46 0.00 92 1017.6
20260906020021 21 75 9.7 19.3 0.00 0.46 0.00 92 1017.6
20260906015541 21 73 6.4 12.9 0.00 0.46 0.00 92 1017.7
20260906015020 21 68 3.2 11.3 0.00 0.46 0.00 92 1017.7
20260906014520 21 63 4.8 17.7 0.00 0.46 0.00 92 1017.7
20260906014020 21 88 3.2 11.3 0.00 0.46 0.00 92 1017.8
20260906013520 21 44 6.4 14.5 0.00 0.46 0.00 92 1017.8
20260906013020 21 60 8.0 20.9 0.00 0.46 0.00 92 1017.8
20260906012519 21 67 4.8 14.5 0.00 0.46 0.00 92 1017.8
20260906012019 21 52 6.4 12.9 0.00 0.46 0.00 91 1017.8
20260906011519 21 50 8.0 25.7 0.00 0.46 0.00 91 1017.7
20260906011019 21 62 6.4 14.5 0.00 0.46 0.00 91 1017.7
20260906010519 21 46 4.8 19.3 0.00 0.46 0.00 90 1017.8
20260906010019 21 39 4.8 14.5 0.00 0.46 0.00 90 1017.8
20260906005519 21 17 4.8 16.1 0.00 0.46 0.00 90 1017.8
20260906005019 21 54 4.8 12.9 0.00 0.46 0.00 90 1017.6
20260906004539 21 75 4.8 14.5 0.00 0.46 0.00 90 1017.6
20260906004019 22 45 6.4 16.1 0.00 0.46 0.00 90 1017.4
20260906003518 22 60 3.2 9.7 0.00 0.46 0.00 91 1017.6
20260906003018 22 71 4.8 16.1 0.00 0.46 0.00 91 1017.5
20260906002518 22 63 4.8 17.7 0.00 0.46 0.00 91 1017.5
20260906002019 22 62 6.4 17.7 0.00 0.46 0.00 90 1017.4
20260906001518 22 67 4.8 12.9 0.00 0.46 0.00 90 1017.5
20260906001018 22 64 8.0 20.9 0.00 0.46 0.00 90 1017.4
20260906000518 22 68 8.0 19.3 0.00 0.46 0.00 90 1017.3
20260906000018 22 61 11.3 24.1 0.00 0.46 0.00 89 1017.3
20260905235518 22 61 8.0 27.4 0.00 0.46 0.00 89 1017.2
20260905235018 22 59 6.4 20.9 0.00 0.46 0.00 88 1017.1
20260905234520 23 54 6.4 20.9 0.00 0.46 0.00 88 1017.0
20260905234018 23 51 6.4 24.1 0.00 0.46 0.00 88 1017.0
20260905233517 23 45 4.8 16.1 0.00 0.46 0.00 87 1017.1
20260905233037 23 57 4.8 14.5 0.00 0.46 0.00 86 1017.1
20260905232517 23 46 8.0 17.7 0.00 0.46 0.00 85 1017.0
20260905232017 23 30 6.4 20.9 0.00 0.46 0.00 84 1017.0
20260905231517 23 38 4.8 16.1 0.00 0.46 0.00 83 1017.0
20260905231017 24 48 9.7 24.1 0.00 0.46 0.00 82 1017.0
20260905230517 24 50 8.0 24.1 0.00 0.46 0.00 82 1016.8
20260905230017 24 32 6.4 24.1 0.00 0.46 0.00 82 1016.7
20260905225543 24 38 4.8 19.3 0.00 0.46 0.00 82 1016.7
20260905225023 25 33 6.4 19.3 0.00 0.46 0.00 81 1016.6
20260905224522 25 30 6.4 20.9 0.00 0.46 0.00 81 1016.5
20260905224022 25 30 8.0 20.9 0.00 0.46 0.00 81 1016.5
20260905223521 25 57 8.0 19.3 0.00 0.46 0.00 81 1016.5
20260905223021 26 48 9.7 27.4 0.00 0.46 0.00 79 1016.4
20260905222520 26 25 4.8 11.3 0.00 0.46 0.00 79 1016.4
20260905222020 25 32 6.4 14.5 0.00 0.46 0.00 80 1016.4
20260905221539 25 33 6.4 20.9 0.00 0.46 0.00 81 1016.3
20260905221019 26 57 11.3 24.1 0.00 0.46 0.00 80 1016.3
20260905220519 26 62 6.4 17.7 0.00 0.46 0.00 79 1016.3
20260905220018 26 39 6.4 14.5 0.00 0.46 0.00 78 1016.2
20260905215518 27 59 4.8 20.9 0.00 0.46 0.00 76 1016.4
20260905215017 27 34 3.2 12.9 0.00 0.46 0.00 76 1016.2
20260905214517 26 14 4.8 14.5 0.00 0.46 0.00 77 1016.2
20260905214017 26 16 4.8 16.1 0.00 0.46 0.00 77 1016.1
20260905213517 26 0 6.4 22.5 0.00 0.46 0.00 75 1016.1
20260905213016 26 357 8.0 17.7 0.00 0.46 0.00 74 1016.0
20260905212516 26 1 8.0 20.9 0.00 0.46 0.00 73 1016.1
20260905212017 26 355 6.4 17.7 0.00 0.46 0.00 73 1016.1
20260905211523 26 357 8.0 17.7 0.00 0.46 0.00 73 1016.2
20260905211023 26 357 4.8 20.9 0.00 0.46 0.00 74 1016.1
20260905210523 26 3 3.2 14.5 0.00 0.46 0.00 74 1016.1
20260905210023 26 14 1.6 9.7 0.00 0.46 0.00 75 1016.0
20260905205522 26 38 3.2 11.3 0.00 0.46 0.00 77 1016.0
20260905205022 26 38 4.8 11.3 0.00 0.46 0.00 77 1016.1
20260905204522 26 11 4.8 9.7 0.00 0.46 0.00 77 1016.2
20260905204021 26 10 3.2 8.0 0.00 0.46 0.00 77 1016.4
20260905203521 26 13 6.4 11.3 0.00 0.46 0.00 77 1016.3
20260905203021 26 1 4.8 11.3 0.00 0.46 0.00 78 1016.3
20260905202520 25 359 6.4 11.3 0.00 0.46 0.00 79 1016.3
20260905202020 25 37 4.8 11.3 0.00 0.46 0.00 79 1016.2
20260905201520 25 350 4.8 14.5 0.00 0.46 0.00 81 1016.3
20260905201020 26 35 4.8 17.7 0.00 0.46 0.00 81 1016.3
20260905200520 26 27 4.8 11.3 0.00 0.46 0.00 80 1016.4
20260905200019 25 8 4.8 14.5 0.00 0.46 0.00 81 1016.3
20260905195519 25 24 4.8 11.3 0.00 0.46 0.00 82 1016.4
20260905195019 25 19 4.8 14.5 0.00 0.46 0.00 83 1016.5
20260905194519 25 359 8.0 17.7 0.00 0.46 0.00 83 1016.5
20260905194018 25 3 4.8 12.9 0.00 0.46 0.00 83 1016.6
20260905193518 25 29 4.8 16.1 0.00 0.46 0.00 84 1016.7
20260905193038 24 351 6.4 16.1 0.00 0.46 0.00 86 1016.8
20260905192517 25 23 4.8 11.3 0.00 0.46 0.00 86 1016.6
20260905192037 24 356 4.8 11.3 0.00 0.46 0.00 87 1016.8
20260905191517 24 15 6.4 14.5 0.00 0.46 0.00 87 1016.8
20260905191016 24 13 6.4 14.5 0.00 0.46 0.00 87 1016.9
20260905190516 24 11 6.4 16.1 0.00 0.46 0.00 87 1017.0
20260905190015 24 30 4.8 14.5 0.00 0.46 0.00 87 1016.9
20260905185535 24 22 4.8 9.7 0.00 0.46 0.00 87 1016.9
20260905185023 24 22 3.2 9.7 0.00 0.46 0.00 87 1017.0
20260905184523 23 20 3.2 8.0 0.00 0.46 0.00 88 1017.1
20260905184023 23 37 1.6 4.8 0.00 0.46 0.00 90 1017.1
20260905183522 23 33 3.2 9.7 0.00 0.46 0.00 89 1017.2
20260905183022 23 12 4.8 9.7 0.00 0.46 0.00 89 1017.0
20260905182542 23 18 3.2 9.7 0.00 0.46 0.00 89 1017.1
20260905182022 23 19 4.8 9.7 0.00 0.46 0.00 90 1017.1
20260905181521 23 33 4.8 20.9 0.00 0.46 0.00 91 1017.2
20260905181023 23 29 6.4 17.7 0.00 0.46 0.00 89 1017.0
20260905180521 23 58 3.2 8.0 0.00 0.46 0.00 89 1017.1
20260905180020 23 11 3.2 11.3 0.00 0.46 0.00 89 1017.0
20260905175520 23 0 4.8 11.3 0.00 0.46 0.00 89 1017.0
20260905175020 23 22 4.8 12.9 0.00 0.46 0.00 90 1017.0
20260905174519 23 20 6.4 17.7 0.00 0.46 0.00 89 1017.0
20260905174019 23 18 4.8 14.5 0.00 0.46 0.00 90 1016.9
20260905173519 23 359 6.4 22.5 0.00 0.46 0.00 89 1016.9
20260905173019 23 13 4.8 12.9 0.00 0.46 0.00 89 1016.9
20260905172518 23 18 3.2 8.0 0.00 0.46 0.00 89 1016.9
20260905172018 23 18 4.8 12.9 0.00 0.46 0.00 89 1016.9
20260905171518 23 359 6.4 19.3 0.00 0.46 0.00 90 1016.9
20260905171018 23 10 8.0 22.5 0.00 0.46 0.00 89 1016.9
20260905170517 23 4 11.3 22.5 0.00 0.46 0.00 89 1016.9
20260905170017 24 10 6.4 17.7 0.00 0.46 0.00 89 1017.0
20260905165517 24 23 6.4 20.9 0.00 0.48 0.00 88 1017.0
20260905165017 24 351 4.8 16.1 0.00 0.48 0.00 87 1017.1
20260905164516 24 358 8.0 19.3 0.00 0.48 0.00 87 1017.1
20260905164056 24 2 6.4 19.3 0.00 0.48 0.00 88 1017.1
20260905163536 24 352 8.0 16.1 0.00 0.48 0.00 89 1017.0
20260905163016 24 12 4.8 14.5 0.00 0.48 0.00 89 1017.1
20260905162515 24 69 3.2 9.7 0.00 0.48 0.00 89 1017.0
20260905162024 24 20 3.2 12.9 0.00 0.48 0.00 90 1016.9
20260905161523 24 25 3.2 9.7 0.00 0.48 0.00 90 1017.0
20260905161023 24 42 4.8 17.7 0.00 0.48 0.00 89 1016.9
20260905160522 23 62 3.2 11.3 0.00 0.48 0.00 90 1016.9
20260905160022 23 32 4.8 14.5 0.00 0.48 0.00 90 1016.9
20260905155522 24 4 6.4 12.9 0.00 0.48 0.00 90 1016.9
20260905155021 24 12 4.8 16.1 0.00 0.48 0.00 90 1016.8
20260905154521 24 1 6.4 14.5 0.00 0.48 0.00 90 1016.7
20260905154021 24 72 6.4 19.3 0.00 0.48 0.00 90 1016.8
20260905153541 23 69 6.4 16.1 0.00 0.48 0.00 91 1016.6
20260905153020 23 60 6.4 20.9 0.00 0.48 0.00 92 1016.5
20260905152520 23 33 4.8 14.5 0.00 0.48 0.00 92 1016.4
20260905152020 23 51 8.0 17.7 0.00 0.48 0.00 92 1016.5
20260905151520 23 49 4.8 14.5 0.00 0.48 0.00 94 1016.4
20260905151040 22 9 3.2 14.5 0.00 0.48 0.00 95 1016.4
20260905150520 23 5 4.8 12.9 0.00 0.48 0.00 95 1016.3
20260905150019 22 18 4.8 16.1 0.00 0.48 0.00 95 1016.3
20260905145519 22 43 3.2 8.0 0.00 0.48 0.00 96 1016.3
20260905145018 22 44 3.2 9.7 0.00 0.48 0.00 97 1016.3
20260905144521 22 46 6.4 16.1 0.00 0.48 0.00 97 1016.4
20260905144018 22 41 4.8 11.3 0.00 0.48 0.00 97 1016.3
20260905143518 22 59 4.8 16.1 0.00 0.48 0.00 97 1016.3
20260905143017 22 39 3.2 9.7 0.00 0.48 0.00 97 1016.1
20260905142537 22 40 3.2 9.7 0.00 0.48 0.00 97 1016.1
20260905142017 22 50 3.2 8.0 0.00 0.48 0.00 98 1016.3
20260905141517 22 45 4.8 12.9 0.00 0.48 0.00 99 1016.4
20260905141017 22 27 3.2 9.7 0.00 0.48 0.00 99 1016.3
20260905140537 22 22 4.8 17.7 0.00 0.48 0.00 99 1016.2
20260905140016 22 55 4.8 19.3 0.00 0.48 0.00 99 1016.2
20260905135516 22 49 4.8 16.1 0.00 0.48 0.00 99 1016.2
20260905135015 22 41 4.8 12.9 0.00 0.48 0.00 99 1016.0
20260905134524 22 35 3.2 12.9 0.00 0.48 0.00 99 1016.0
20260905134024 21 59 4.8 11.3 0.00 0.48 0.00 99 1015.9
20260905133523 21 51 4.8 14.5 0.00 0.48 0.00 99 1016.1
20260905133024 21 43 3.2 8.0 0.00 0.48 0.00 99 1016.0
20260905132523 21 27 3.2 11.3 0.00 0.48 0.00 99 1016.1
20260905132022 21 45 1.6 6.4 0.00 0.48 0.00 99 1016.2
20260905131522 21 35 3.2 9.7 0.00 0.48 0.00 99 1016.4
20260905131042 21 21 3.2 8.0 0.00 0.48 0.00 99 1016.5
20260905130521 21 28 3.2 8.0 0.00 0.48 0.00 99 1016.4
20260905130021 21 41 4.8 16.1 0.00 0.48 0.00 99 1015.9
20260905125521 21 37 6.4 14.5 0.00 0.48 0.00 99 1015.9
20260905125021 21 32 3.2 9.7 0.00 0.48 0.00 99 1015.9
20260905124520 21 36 3.2 16.1 0.00 0.48 0.00 99 1015.8
20260905124020 21 49 4.8 9.7 0.00 0.48 0.00 99 1015.7
20260905123520 21 35 3.2 9.7 0.00 0.48 0.00 99 1015.5
20260905123020 21 70 3.2 8.0 0.00 0.48 0.00 99 1015.3
20260905122539 21 61 4.8 9.7 0.00 0.48 0.00 99 1015.2
20260905122018 21 61 4.8 12.9 0.00 0.48 0.00 99 1015.2
20260905121538 21 42 4.8 12.9 0.00 0.48 0.00 99 1015.1
20260905121038 21 29 4.8 11.3 0.00 0.48 0.00 99 1015.1
20260905120517 21 58 1.6 8.0 0.00 0.48 0.00 99 1015.0
20260905120017 21 59 4.8 17.7 0.00 0.48 0.00 99 1014.9
20260905115517 21 41 4.8 12.9 0.00 0.48 0.00 99 1014.9
20260905115016 21 74 3.2 8.0 0.00 0.48 0.00 99 1014.9
20260905114516 21 29 1.6 4.8 0.00 0.48 0.00 99 1014.9
20260905114016 21 50 1.6 6.4 0.00 0.48 0.00 99 1014.7